Location: Centerville
(32.8776°N, 96.6203°W)
Time: 00:39:55
(UTC+00:00)

SPOT 5 - Pass Details

Date: 17 June 2021
Orbit: 622 x 815 km, 98.2° (Epoch: 27 July)

Event Time Altitude Azimuth Distance (km) Brightness Sun altitude
Exits shadow 03:30:01 27° 93° (E) 1,456 4.0 -19.6°
Maximum altitude 03:31:05 30° 71° (ENE) 1,376 4.1 -19.8°
Drops below altitude 10° 03:35:26 10° 12° (NNE) 2,285 5.9 -20.4°
Sets 03:37:54 0° 1° (N) 3,181 6.9 -20.7°
